Location: Friaudour
(46.0460°N, 1.2873°E)
Time: 00:30:35
(UTC+00:00)

Landsat 4 - Pass Details

Date: 14 July 2020
Orbit: 506 x 522 km, 98.2° (Epoch: 03 August)

Event Time Altitude Azimuth Distance (km) Brightness Sun altitude
Rises 00:04:51 0° 14° (NNE) 2,658 8.7 -22.3°
Reaches altitude 10° 00:06:57 10° 16° (NNE) 1,766 7.5 -22.3°
Enters shadow 00:10:42 80° 84° (E) 536 3.6 -22.3°
